カタログに戻る

STARLINK-36779

運用中通信VLEO
NORAD 67869·PAYLOAD·🇺🇸 United States

打ち上げ Feb 20, 2026 から Vandenberg Space Force Base

Loading…

次のパス (今後24時間)

TLE

最新Source: CelesTrak SupGP

元期: Sep 15, 2026, 03:45 UTC

1 67869C 26034V   26258.15673611  .00020389  00000+0  60265-3 0  2585
2 67869  53.1593  39.0409 0001188  90.2769  11.4210 15.34367440    17

AllMySatでSTARLINK-36779をリアルタイム追跡

Download on the App Store